COSMOS 2251 DEB, 35705

Orbit data source: Space-Track

COSMOS 2251 DEB, 35705 is space debris in LEO originally from a launch on Wed, 16 Jun 1993 UTC launched from the Plesetsk Missile And Space Complex (PKMTR). The debris from Iridium 33, an American commercial communications satellite, has been tracked extensively since its accidental collision with the defunct Russian satellite Cosmos 2251 in 2009. This event, occurring at high speed in low Earth orbit (LEO), generated thousands of pieces of space debris, significantly increasing the risk of further collisions. The Iridium 33 debris cloud has impacted space traffic management and orbital debris mitigation strategies, making it a subject of ongoing study in space situational awareness.

Loading next visibility...
Identifier
35705, 1993-036AQA
Orbit
LEO
Country
Flag of CISCIS
Related business
Manufacturer
Unknown
Mission
Spacecraft
Bus & Motor
Unknown
Mass
Unknown
Launch date (UTC)
1993-06-16 (33 years ago)
Launch vehicle
Unknown
Launch site
Plesetsk Missile And Space Complex (PKMTR)
Object type
Payload
Rocket body
Debris
Shape & HBR
Unknown shape, 0.1 m
Radar Cross Section
Small (<0.1 m²)

Expand to show TLE details & history
Last TLE update: 4 days ago

TLE from 4 days ago
0 COSMOS 2251 DEB
1 35705U 93036AQA 26160.25915958  .00017086  00000-0  22756-2 0  9996
2 35705  74.2691 151.3879 0022603  33.6302 326.6304 14.79471053885607
Epoch: 2026-06-09T06:13Z
TLE epoch observation values (Epoch: 2026-06-09T06:13:11.387Z)
Latitude
-0.00006°
Longitude
160.45621°
Altitude
620.449 km
Speed
7.556 km/s
True Right ascension
10h 05m 33s
True Declination
0° 00' 00"
Sunlit
Object was in daylight at epoch
Visualization orbit readout
Latitude
Unknown
Longitude
Unknown
Altitude
Unknown
Speed
Unknown
Apparent Right ascension
Unknown
Apparent Declination
Unknown
Sunlit
N/A
Visualization observer readout
Local Sidereal Time
05:41:08
Azimuth
Unknown
Elevation
Unknown
Doppler factor
Unknown
Orbital elements
Apogee altitude
644.387 km
Perigee altitude
612.713 km
Semi-major axis
7,006.687 km
Eccentricity
0.00226
Inclination
74.2691°
RAAN
151.3879°
Arg. of periapsis
33.6302°
True anomaly
326.4876°
Mean anomaly
326.6304°
Eccentric anomaly
326.55903°
Mean motion
3.70062 °/min
Orbital period
97.28 mins
BSTAR
0.0022756

Documentation

Showing up to 5 results
|